Regional Weather Roundup
Issued by NWS

Home | Current Version | Previous Version | Text Only | Print | Product List | Glossary Off
Versions: 1 2 3 4 5 6 7 8 9 10 11 12 13 14 15 16 17 18 19 20 21 22 23 24 25 26 27 28 29 30 31 32 33 34 35 36 37 38 39 40 41 42 43 44 45 46 47 48 49 50

000
ASUS45 KBOU 120710
RWRCO

WEATHER ROUNDUP FOR COLORADO
NATIONAL WEATHER SERVICE DENVER/BOULDER CO
100 AM MDT SAT JUL 12 2014

NOTE: "FAIR" INDICATES FEW OR NO CLOUDS BELOW 12000 FEET WITH NO
SIGNIFICANT WEATHER AND/OR OBSTRUCTIONS TO VISIBILITY.

COZ001>005-013-030-031-120800-
...NORTHWEST COLORADO...

CITY           SKY/WX    TMP DP  RH WIND       PRES   REMARKS
CRAIG          CLOUDY    60  56  86 S5        30.27R
HAYDEN         CLOUDY    61  54  77 SE16G23   30.30R
MEEKER         MOCLDY    65  54  67 NE8       30.26S
MOUNT WERNER   NOT AVBL
STEAMBOAT SPGS MOCLDY    58  53  84 SE13      30.32F
WALDEN         CLOUDY    54  50  87 SW15      30.44R
$$

COZ006>008-011-120800-
...WEST CENTRAL VALLEYS...

CITY           SKY/WX    TMP DP  RH WIND       PRES   REMARKS
GRAND JUNCTION PTCLDY    76  51  41 NE12      30.10S
MONTROSE       PTCLDY    70  51  51 E12       30.22R
EAGLE          CLOUDY    61  61 100 E6        30.36R
RIFLE          PTCLDY    63  58  83 CALM      30.20F
DELTA          PTCLDY    69  60  71 E13       30.17R
NUCLA          MOCLDY    72  45  37 S6        30.25R
$$

COZ017>023-064>068-120800-
...SOUTHWEST COLORADO...

CITY           SKY/WX    TMP DP  RH WIND       PRES   REMARKS
DURANGO        CLOUDY    60  58  92 N3        30.37F
CORTEZ         LGT RAIN  68  56  65 SE20G28   30.26F
PAGOSA SPRINGS CLOUDY    59  54  83 N7        30.44F
TELLURIDE      CLOUDY    61  48  63 SE9G18    30.49R
WOLF CREEK PAS NOT AVBL
$$

COZ009-010-012-014-032>034-037-058>063-120800-
...CENTRAL COLORADO...

CITY           SKY/WX    TMP DP  RH WIND       PRES   REMARKS
ASPEN          CLOUDY    59  52  77 VRB5      30.42R
BUENA VISTA    MOCLDY    57  49  74 W9        30.40S
COPPER MTN     CLOUDY    52  43  71 W5        30.69S
BERTHOUD PASS  CLOUDY    43  30  61 SE13      30.74S
COTTONWOOD PAS MOCLDY    61  43  51 W3        30.54S
GUNNISON       MOCLDY    55  50  82 NW3       30.42S
KREMMLING      RAIN      57  52  82 N5        30.41R
LEADVILLE      CLOUDY    45  43  93 E6        30.54R
MONARCH PASS   MOCLDY    50  39  66 SW15      30.79S
SALIDA         MOCLDY   N/A N/A N/A NW12      30.44F
SUNLIGHT       CLOUDY    50  46  87 CALM      30.60S
WILKERSON PASS CLOUDY    52  41  66 SW3       30.67S
$$

COZ069>075-120800-
...SAN LUIS VALLEY/SANGRE DE CRISTO MOUNTAINS...

CITY           SKY/WX    TMP DP  RH WIND       PRES   REMARKS
ALAMOSA        MOCLDY    58  50  75 E7        30.36S
LA VETA PASS   MOCLDY    50  43  76 SW3       30.55F
SAGUACHE       NOT AVBL
$$

COZ035-036-038>040-120800-
...NORTHERN COLORADO FRONT RANGE...

CITY           SKY/WX    TMP DP  RH WIND       PRES   REMARKS
DENVER INTL AP LGT RAIN  65  61  87 N8        30.25S
DMNS CITY PARK   N/A     66  60  81 N3G13     30.26R
AURORA         MOCLDY    64  64  99 N8        30.28R
FRONT RANGE AP NOT AVBL
ERIE MUNI ARPT CLOUDY    65  62  88 CALM      30.24F
BOULDER MUN AP CLOUDY    68  61  77 SW3       30.24F
CENTENNIAL     CLOUDY    65  61  87 SW5       30.28R
BROOMFIELD     CLOUDY    64  61  88 N8        30.28S
FORT COLLINS   CLOUDY    64  61  88 N9        30.24F
LONGMONT       LGT RAIN  68  63  83 CALM      30.25S
$$

COZ041-046-047-076>085-087-088-120800-
...PIKES PEAK/PALMER DIVIDE AND SOUTHERN FOOTHILLS...

CITY           SKY/WX    TMP DP  RH WIND       PRES   REMARKS
COLO. SPRINGS  CLOUDY    66  56  70 NW13      30.29R
A. F. ACADEMY  LGT RAIN  64  56  76 NW3       30.33R
ELLICOTT       CLOUDY    65  59  81 NE10      30.24F
FALCON         CLOUDY    61  56  83 N9        30.34S
FORT CARSON    CLOUDY    67  56  68 N10       30.27R
LIMON          CLOUDY    65  58  78 W6        30.20S
MONUMENT HILL  RAIN      59  54  82 NW5       30.34F
TRINIDAD       PTCLDY    66  54  65 NW6       30.22F
$$

COZ042>045-048>051-090-091-120800-
...NORTHEAST COLORADO...

CITY           SKY/WX    TMP DP  RH WIND       PRES   REMARKS
GREELEY ARPT   NOT AVBL
AKRON          CLOUDY    64  61  90 NW12      30.15F
BURLINGTON     CLOUDY    66  61  84 SE8       30.11F
WRAY           CLOUDY    69  65  86 SW6       30.06F
STERLING       CLOUDY    70  68  94 N14       30.12S
HOLYOKE        LGT RAIN  70  64  83 NW14      30.06F
FORT MORGAN    CLOUDY    65  62  90 NW8       30.18F
$$

COZ086-089-092>099-120800-
...SOUTHEAST COLORADO...

CITY           SKY/WX    TMP DP  RH WIND       PRES   REMARKS
PUEBLO         CLOUDY    71  62  73 NE6       30.16F
LA JUNTA       MOCLDY    74  59  59 NE5       30.11F
LAMAR          CLEAR     79  57  46 SW23      30.04R
SPRINGFIELD      N/A     73  54  51 S17       30.15F
$$



USA.gov is the U.S. government's official web portal to all federal, state and local government web resources and services.